When you browse on this site, cookies collect data to enhance your experience and personalize the content and advertising you see.
Visit our Privacy Policy to learn more. By continuing to use the site, you agree to this use of cookies and data.
  • In Schweiz
  • Länderverzeichnis
  • Für 7 Tage
  • Wassertemperatur
  • Satellitenkarten
  • Wetterkarte
  • Widgets
  • user-avatar
    Anmelden

    Stündliche Wetter Igls

    Heute, 23 März, Samstag

    Zeit Temperatur Niederschläge Wind Luftdruck Luftfeuchtigkeit
    00:00 +6°C° 0 mm 1 m/S 691 mmHg 70%
    01:00 +6°C° 0 mm 2 m/S 691 mmHg 64%
    02:00 +6°C° 0 mm 1 m/S 691 mmHg 65%
    03:00 +6°C° 0 mm 1 m/S 691 mmHg 66%
    04:00 +6°C° 0 mm 1 m/S 691 mmHg 67%
    05:00 +6°C° 0 mm 1 m/S 691 mmHg 67%
    06:00 +6°C° 0 mm 1 m/S 691 mmHg 67%
    07:00 +6°C° 0 mm 1 m/S 691 mmHg 67%
    08:00 +9°C° 0 mm 1 m/S 691 mmHg 66%
    09:00 +10°C° 0 mm 0 m/S 691 mmHg 64%
    10:00 +13°C° 0 mm 0 m/S 691 mmHg 63%
    11:00 +14°C° 0 mm 0 m/S 691 mmHg 60%
    12:00 +16°C° 0 mm 1 m/S 691 mmHg 57%
    13:00 +16°C° 0 mm 1 m/S 691 mmHg 54%
    14:00 +16°C° 0 mm 1 m/S 691 mmHg 56%
    15:00 +16°C° 0 mm 1 m/S 690 mmHg 58%
    16:00 +15°C° 0 mm 1 m/S 690 mmHg 61%
    17:00 +13°C° 0 mm 1 m/S 690 mmHg 68%
    18:00 +10°C° 0 mm 1 m/S 689 mmHg 75%
    19:00 +7°C° 0 mm 0 m/S 689 mmHg 83%
    20:00 +7°C° 0 mm 0 m/S 689 mmHg 83%
    21:00 +7°C° 0 mm 1 m/S 690 mmHg 84%
    22:00 +7°C° 0 mm 1 m/S 690 mmHg 85%
    23:00 +7°C° 0 mm 1 m/S 690 mmHg 83%

    Morgen, 24 März, Sonntag

    Zeit Temperatur Niederschläge Wind Luftdruck Luftfeuchtigkeit
    00:00 +7°C° 0 mm 1 m/S 690 mmHg 82%
    01:00 +6°C° 0 mm 1 m/S 690 mmHg 80%
    02:00 +5°C° 0 mm 2 m/S 690 mmHg 78%
    03:00 +5°C° 0 mm 2 m/S 689 mmHg 76%
    04:00 +5°C° 0 mm 2 m/S 689 mmHg 73%
    05:00 +5°C° 0 mm 2 m/S 689 mmHg 71%
    06:00 +5°C° 0 mm 2 m/S 689 mmHg 68%
    07:00 +5°C° 0 mm 2 m/S 689 mmHg 66%
    08:00 +9°C° 0 mm 1 m/S 689 mmHg 61%
    09:00 +12°C° 0 mm 1 m/S 689 mmHg 56%
    10:00 +15°C° 0 mm 1 m/S 689 mmHg 51%
    11:00 +16°C° 0 mm 1 m/S 689 mmHg 50%
    12:00 +16°C° 0 mm 1 m/S 689 mmHg 49%
    13:00 +18°C° 0 mm 1 m/S 689 mmHg 47%
    14:00 +18°C° 0 mm 1 m/S 688 mmHg 51%
    15:00 +16°C° 0 mm 1 m/S 688 mmHg 54%
    16:00 +16°C° 0 mm 1 m/S 687 mmHg 58%
    17:00 +13°C° 0 mm 1 m/S 687 mmHg 68%
    18:00 +11°C° 0 mm 1 m/S 687 mmHg 78%
    19:00 +9°C° 0 mm 1 m/S 686 mmHg 88%
    20:00 +8°C° 0 mm 1 m/S 687 mmHg 90%
    21:00 +8°C° 0 mm 1 m/S 687 mmHg 91%
    22:00 +8°C° 0 mm 1 m/S 687 mmHg 93%
    23:00 +8°C° 0.1 mm 1 m/S 687 mmHg 93%

    übermorgen, 25 März, Montag

    Zeit Temperatur Niederschläge Wind Luftdruck Luftfeuchtigkeit
    00:00 +7°C° 0.1 mm 1 m/S 687 mmHg 93%
    01:00 +7°C° 0.1 mm 1 m/S 686 mmHg 93%
    02:00 +7°C° 0 mm 1 m/S 686 mmHg 93%
    03:00 +6°C° 0 mm 1 m/S 686 mmHg 92%
    04:00 +6°C° 0 mm 1 m/S 686 mmHg 92%
    05:00 +6°C° 0 mm 1 m/S 686 mmHg 92%
    06:00 +6°C° 0 mm 1 m/S 686 mmHg 92%
    07:00 +6°C° 0 mm 1 m/S 686 mmHg 92%
    08:00 +7°C° 0.2 mm 1 m/S 686 mmHg 88%
    09:00 +7°C° 0.2 mm 2 m/S 686 mmHg 84%
    10:00 +8°C° 0.2 mm 2 m/S 685 mmHg 81%
    11:00 +8°C° 0.2 mm 2 m/S 685 mmHg 79%
    12:00 +8°C° 0.2 mm 2 m/S 685 mmHg 78%
    13:00 +8°C° 0.2 mm 2 m/S 684 mmHg 77%
    14:00 +7°C° 0.3 mm 3 m/S 684 mmHg 79%
    15:00 +7°C° 0.3 mm 3 m/S 684 mmHg 81%
    16:00 +5°C° 0.3 mm 3 m/S 684 mmHg 83%
    17:00 +4°C° 0.6 mm 3 m/S 684 mmHg 86%
    18:00 +2°C° 0.6 mm 3 m/S 685 mmHg 90%
    19:00 +1°C° 0.6 mm 3 m/S 685 mmHg 93%
    20:00 0°C° 0.7 mm 3 m/S 686 mmHg 92%
    21:00 -1°C° 0.7 mm 3 m/S 687 mmHg 92%
    22:00 -2°C° 0.7 mm 3 m/S 687 mmHg 91%
    23:00 -2°C° 0.2 mm 3 m/S 688 mmHg 90%

    26 März, Dienstag

    Zeit Temperatur Niederschläge Wind Luftdruck Luftfeuchtigkeit
    00:00 -2°C° 0.2 mm 2 m/S 688 mmHg 90%
    01:00 -3°C° 0.2 mm 2 m/S 689 mmHg 89%
    02:00 -3°C° 0.2 mm 2 m/S 689 mmHg 89%
    03:00 -3°C° 0.2 mm 2 m/S 689 mmHg 89%
    04:00 -3°C° 0.2 mm 2 m/S 689 mmHg 88%
    05:00 -3°C° 0.2 mm 2 m/S 690 mmHg 87%
    06:00 -3°C° 0.2 mm 2 m/S 690 mmHg 86%
    07:00 -3°C° 0.2 mm 2 m/S 691 mmHg 86%
    08:00 -2°C° 0.1 mm 2 m/S 691 mmHg 81%
    09:00 -1°C° 0.1 mm 2 m/S 691 mmHg 75%
    10:00 +1°C° 0.1 mm 2 m/S 692 mmHg 70%
    11:00 +2°C° 0 mm 2 m/S 692 mmHg 68%
    12:00 +3°C° 0 mm 2 m/S 691 mmHg 65%
    13:00 +4°C° 0 mm 2 m/S 691 mmHg 63%
    14:00 +3°C° 0 mm 2 m/S 691 mmHg 64%
    15:00 +3°C° 0 mm 2 m/S 691 mmHg 64%
    16:00 +3°C° 0 mm 2 m/S 690 mmHg 65%
    17:00 +2°C° 0 mm 2 m/S 690 mmHg 73%
    18:00 +1°C° 0 mm 1 m/S 691 mmHg 81%
    19:00 -1°C° 0 mm 1 m/S 691 mmHg 89%
    20:00 -1°C° 0 mm 1 m/S 691 mmHg 89%
    21:00 -1°C° 0 mm 1 m/S 692 mmHg 90%
    22:00 -2°C° 0 mm 1 m/S 692 mmHg 90%
    23:00 -2°C° 0 mm 1 m/S 692 mmHg 87%

    27 März, Mittwoch

    Zeit Temperatur Niederschläge Wind Luftdruck Luftfeuchtigkeit
    00:00 -2°C° 0 mm 1 m/S 692 mmHg 85%
    01:00 -2°C° 0 mm 1 m/S 692 mmHg 82%
    02:00 -2°C° 0 mm 1 m/S 691 mmHg 79%
    03:00 -2°C° 0 mm 1 m/S 691 mmHg 75%
    04:00 -2°C° 0 mm 1 m/S 691 mmHg 72%
    05:00 -2°C° 0 mm 1 m/S 691 mmHg 69%
    06:00 -1°C° 0 mm 1 m/S 691 mmHg 66%
    07:00 -1°C° 0 mm 1 m/S 692 mmHg 63%
    08:00 +2°C° 0 mm 1 m/S 692 mmHg 58%
    09:00 +4°C° 0 mm 1 m/S 692 mmHg 53%
    10:00 +5°C° 0 mm 2 m/S 692 mmHg 48%
    11:00 +6°C° 0 mm 2 m/S 692 mmHg 50%
    12:00 +7°C° 0 mm 2 m/S 691 mmHg 52%
    13:00 +7°C° 0 mm 2 m/S 691 mmHg 54%
    14:00 +7°C° 0 mm 2 m/S 691 mmHg 58%
    15:00 +6°C° 0 mm 2 m/S 691 mmHg 61%
    16:00 +6°C° 0 mm 2 m/S 690 mmHg 65%
    17:00 +5°C° 0.1 mm 2 m/S 691 mmHg 74%
    18:00 +3°C° 0.1 mm 2 m/S 691 mmHg 83%
    19:00 +3°C° 0.1 mm 1 m/S 691 mmHg 92%
    20:00 +3°C° 0.1 mm 1 m/S 691 mmHg 93%
    21:00 +3°C° 0.1 mm 1 m/S 692 mmHg 94%
    22:00 +3°C° 0.1 mm 1 m/S 692 mmHg 94%
    23:00 +2°C° 0.1 mm 1 m/S 692 mmHg 94%

    28 März, Donnerstag

    Zeit Temperatur Niederschläge Wind Luftdruck Luftfeuchtigkeit
    00:00 +2°C° 0.1 mm 1 m/S 692 mmHg 94%
    01:00 +2°C° 0.1 mm 1 m/S 692 mmHg 93%
    02:00 +2°C° 0.1 mm 1 m/S 692 mmHg 92%
    03:00 +2°C° 0.1 mm 1 m/S 692 mmHg 90%
    04:00 +2°C° 0.1 mm 1 m/S 692 mmHg 89%
    05:00 +2°C° 0.1 mm 1 m/S 692 mmHg 88%
    06:00 +3°C° 0.1 mm 1 m/S 692 mmHg 86%
    07:00 +3°C° 0.1 mm 1 m/S 692 mmHg 85%
    08:00 +4°C° 0 mm 1 m/S 692 mmHg 81%
    09:00 +6°C° 0 mm 1 m/S 692 mmHg 76%
    10:00 +7°C° 0 mm 1 m/S 692 mmHg 72%
    11:00 +7°C° 0 mm 2 m/S 692 mmHg 70%
    12:00 +8°C° 0 mm 2 m/S 692 mmHg 68%
    13:00 +8°C° 0 mm 2 m/S 692 mmHg 66%
    14:00 +8°C° 0 mm 2 m/S 692 mmHg 67%
    15:00 +8°C° 0 mm 2 m/S 692 mmHg 69%
    16:00 +8°C° 0 mm 2 m/S 691 mmHg 71%
    17:00 +6°C° 0 mm 2 m/S 691 mmHg 79%
    18:00 +5°C° 0 mm 1 m/S 691 mmHg 87%
    19:00 +3°C° 0 mm 1 m/S 691 mmHg 95%
    20:00 +3°C° 0 mm 1 m/S 692 mmHg 94%
    21:00 +3°C° 0 mm 1 m/S 692 mmHg 94%
    22:00 +3°C° 0 mm 1 m/S 692 mmHg 93%
    23:00 +3°C° 0 mm 1 m/S 692 mmHg 90%
    Mehr zeigen